Miscellaneous Local Product
Issued by NWS North Platte, NE

Home | Current Version | Previous Version | Text Only | Print | Product List | Glossary On
Versions: 1 2 3 4 5 6 7 8 9 10 11 12 13 14 15 16 17 18 19 20 21 22 23 24 25 26 27 28 29 30 31 32 33 34 35 36 37 38 39 40 41 42 43 44 45 46 47 48 49 50
000
AXUS43 KLBF 260710
MISLBF


WESTERN AND NORTH CENTRAL NEBRASKA HOURLY WEATHER ROUNDUP
NATIONAL WEATHER SERVICE NORTH PLATTE NE
200 AM CDT MON JUN 26 2017

NOTE: "FAIR" INDICATES FEW OR NO CLOUDS BELOW 12,000 FEET WITH NO
SIGNIFICANT WEATHER AND/OR OBSTRUCTIONS TO VISIBILITY.

NOTE: STATIONS NOT REPORTING VARIABLES SUCH AS SKY/WEATHER OR
PRESSURE ARE PROVIDED BY RAWS AND APRS NETWORKS AND ARE NOT UNDER
NATIONAL WEATHER SERVICE QUALITY CONTROL.

...OBSERVATIONS IN AND NEAR THE EASTERN PANHANDLE OF NEBRASKA...

CITY           SKY/WX    TMP DP  RH WIND       PRES   REMARKS
PINE RIDGE     CLEAR     51  43  74 E8        30.24R
GORDON         CLOUDY    55  44  66 NE9       30.23S
CHADRON        CLEAR     49  42  77 SE5       30.22R
ALLIANCE       CLEAR     56  51  84 N9        30.23R
SIDNEY         CLEAR     55  53  93 SW10      30.27F
CRESCENT LAKE    N/A     58  53  83 S8          N/A
$$

...OBSERVATIONS IN NORTHERN NEBRASKA AND FAR SOUTHERN SOUTH DAKOTA...

CITY           SKY/WX    TMP DP  RH WIND       PRES   REMARKS
WINNER         FAIR      55  45  68 NE8       30.20R
VALENTINE      PTCLDY    60  43  53 N6        30.19R
THEDFORD       PTCLDY    57  53  86 CALM      30.23S
AINSWORTH      CLEAR     60  54  78 SW9       30.18S
O`NEILL        CLEAR     60  50  71 SW8       30.17F
ORD            CLOUDY    60  47  61 S6        30.20S
BROKEN BOW     CLOUDY    59  51  75 CALM      30.22F
VALENTINE NWR    N/A     62  52  69 SW13        N/A
HALSEY           N/A     61  51  70 SW5         N/A
BUTTE            N/A     60  43  54 NE6         N/A
CHAMBERS         N/A     61  49  63 CALM        N/A
EWING            N/A     58  49  73 SW5         N/A
$$

...OBSERVATIONS IN SOUTHWEST NEBRASKA AND FAR NORTHEAST COLORADO...

CITY           SKY/WX    TMP DP  RH WIND       PRES   REMARKS
WRAY           FAIR     N/A N/A N/A S6        30.28F
IMPERIAL       PTCLDY    57  55  93 SW9       30.25F
OGALLALA       CLEAR     58  55  89 SW6       30.24S
NORTH PLATTE   PTCLDY    57  54  89 SW6       30.24S
MCCOOK         CLOUDY    60  59  96 SW7       30.25F
LEXINGTON      CLOUDY    59  54  84 SW5       30.25S
STAPLETON        N/A     56  51  85 CALM        N/A
GOTHENBURG       N/A     60  51  73 CALM        N/A
CALLAWAY         N/A     56  52  86 CALM        N/A
$$

...OBSERVATIONS IN CENTRAL LINCOLN COUNTY AREA...

CITY           SKY/WX    TMP DP  RH WIND       PRES   REMARKS
N.P. AIRPORT   PTCLDY    57  54  89 SW6       30.24S
N.P. DOWNTOWN    N/A     56  52  88 CALM        N/A
N.P. SOUTHEAST   N/A     57  53  86 SW3         N/A
N.P. HILLCREST   N/A     57  53  88 SW5         N/A
$$

...SOME OBSERVATIONS FROM AROUND THE REGION...

CITY           SKY/WX    TMP DP  RH WIND       PRES   REMARKS
DENVER         PTCLDY    60  54  80 S13       30.32F
LIMON          PTCLDY    54  53  97 SE3       30.36F
ASPEN          CLOUDY    50  32  50 S8        30.40R
LARAMIE        CLEAR     49  45  86 SE9       30.38F
CASPER         CLEAR     49  36  61 N9        30.31F
CHEYENNE       PTCLDY    54  52  93 SW13      30.35S
SCOTTSBLUFF    CLEAR     64  53  67 SW6       30.23F
GRAND ISLAND   CLOUDY    62  50  64 SW10      30.22F
OMAHA          CLEAR     60  48  64 SE9       30.17F
SIOUX FALLS    MOCLDY    55  53  93 S5        30.20F
PIERRE         PTCLDY    49  44  83 NE7       30.21S
RAPID CITY     CLEAR     48  36  63 CALM      30.27S
BISMARCK       CLEAR     47  43  86 E5        30.26S
KANSAS CITY    PTCLDY    50  49  96 S8        30.22F
HILL CITY      CLEAR     56  55  97 SW6       30.27F
WICHITA        CLOUDY    64  55  72 E6        30.23S
DODGE CITY     CLOUDY    60  57  89 E7        30.27R
OKLAHOMA CITY  CLOUDY    69  56  62 SE6       30.19F
DALLAS         CLOUDY    77  64  64 SE13      30.15S
AMARILLO       CLOUDY    62  56  80 S25G33    30.20F
$$




USA.gov is the U.S. government's official web portal to all federal, state and local government web resources and services.